Powrót do katalogu

ONEWEB-0237

AktywnyŁącznośćPO
NORAD 48770·PAYLOAD·🇬🇧 United Kingdom

Wystrzelony May 28, 2021 z Vostochny Cosmodrome

Loading…

Następne Przeloty (najbliższe 24 godziny)

TLE

ŚwieżeSource: CelesTrak SupGP

Epoka: Sep 14, 2026, 11:11 UTC

1 48770C 21045D   26257.46646251 -.00000381  00000+0 -10129-2 0  2579
2 48770  87.8980 241.4008 0001707  85.1973  16.7080 13.15549413    14

Śledź ONEWEB-0237 w czasie rzeczywistym z AllMySat

Download on the App Store